This is the latest recevied weather packets stored in our database for station/object FRA001-13. If no packets are shown the sender has not sent any weather packets the latest 1 day(s).
| Time | Temp. | Humidity | Pressure | Rain* | Wind** | Luminosity | Snow |
|---|---|---|---|---|---|---|---|
| 1778133004 | 5.56° C | 100% | 1013.7 hPa | 0 mm | - | 57 W/m² | - |
| 1778132704 | 5.56° C | 100% | 1013.4 hPa | 0 mm | - | 45 W/m² | - |
| 1778132403 | 5.56° C | 100% | 1013.3 hPa | 0 mm | - | 39 W/m² | - |
| 1778132103 | 5.56° C | 100% | 1013.3 hPa | 0 mm | - | 33 W/m² | - |
| 1778131803 | 5.56° C | 100% | 1013.4 hPa | 0 mm | - | 29 W/m² | - |
| 1778131503 | 5.56° C | 100% | 1013.4 hPa | 0 mm | - | 27 W/m² | - |
| 1778131203 | 5.56° C | 100% | 1013.4 hPa | 0 mm | - | 22 W/m² | - |
| 1778130903 | 5° C | 100% | 1013.3 hPa | 0 mm | - | 20 W/m² | - |
| 1778130603 | 5° C | 100% | 1013.3 hPa | 0 mm | - | 16 W/m² | - |
| 1778130303 | 5° C | 100% | 1013.2 hPa | 0 mm | - | 13 W/m² | - |
| 1778130003 | 4.44° C | 100% | 1013.1 hPa | 0 mm | - | 10 W/m² | - |
| 1778129703 | 4.44° C | 100% | 1013 hPa | 0 mm | - | 8 W/m² | - |
| 1778129403 | 4.44° C | 100% | 1013.3 hPa | 0 mm | - | 5 W/m² | - |
| 1778129103 | 4.44° C | 100% | 1013.1 hPa | 0 mm | - | 3 W/m² | - |
| 1778128803 | 4.44° C | 100% | 1013.1 hPa | 0 mm | - | 2 W/m² | - |
| 1778128504 | 4.44° C | 100% | 1013.1 hPa | 0 mm | - | 1 W/m² | - |
| 1778128203 | 4.44° C | 100% | 1013 hPa | 0 mm | - | 0 W/m² | - |
| 1778127903 | 4.44° C | 100% | 1012.9 hPa | 0 mm | - | 0 W/m² | - |
| 1778127603 | 4.44° C | 100% | 1013.2 hPa | 0 mm | - | 0 W/m² | - |
| 1778127303 | 4.44° C | 100% | 1013 hPa | 0 mm | - | 0 W/m² | - |
| 1778127003 | 4.44° C | 100% | 1013.1 hPa | 0 mm | - | 0 W/m² | - |
| 1778126703 | 3.89° C | 100% | 1013 hPa | 0 mm | - | 0 W/m² | - |
| 1778126404 | 4.44° C | 100% | 1013.2 hPa | 0 mm | - | 0 W/m² | - |
| 1778126104 | 3.89° C | 100% | 1013.2 hPa | 0 mm | - | 0 W/m² | - |
| 1778125803 | 3.89° C | 100% | 1013.2 hPa | 0 mm | - | 0 W/m² | - |
* Rain latest hour (hover to see other rain measurements)
** Current wind speed in m/s (hover to see current wind gust speed)